Regional Weather Roundup
Issued by NWS

Home | Current Version | Previous Version | Text Only | Print | Product List | Glossary Off
Versions: 1 2 3 4 5 6 7 8 9 10 11 12 13 14 15 16 17 18 19 20 21 22 23 24 25 26 27 28 29 30 31 32 33 34 35 36 37 38 39 40 41 42 43 44 45 46 47 48 49 50

000
ASUS43 KDTX 201110
RWRMI
MICHIGAN HOURLY REGIONAL WEATHER ROUNDUP
NATIONAL WEATHER SERVICE DETROIT/PONTIAC MI
600 AM EST MON FEB 20 2017

NOTE: "FAIR" INDICATES FEW OR NO CLOUDS BELOW 12,000 FEET WITH NO
SIGNIFICANT WEATHER AND/OR OBSTRUCTION TO VISIBILITY.

MIZ047>049-052>055-059>063-066>070-074>076-081>083-201200-
SOUTHEAST LOWER MICHIGAN

CITY           SKY/WX    TMP DP  RH WIND       PRES   REMARKS
ADRIAN         PTCLDY    35  31  85 NE6       30.23R WCI  30
ALMA           PTCLDY    32  28  86 CALM      30.24R
ANN ARBOR      CLOUDY    31  28  89 CALM      30.23R
BAD AXE        CLEAR     25  24  94 CALM      30.26R
CARO           PTCLDY    28  27  97 CALM      30.25R
DETROIT CITY   PTCLDY    36  31  82 CALM      30.25R
DETROIT        CLOUDY    37  30  75 CALM      30.24R
FLINT          PTCLDY    32  27  81 CALM      30.25R
GROSSE ILE     PTCLDY    35  31  86 CALM      30.23R
HILLSDALE      CLOUDY    36  32  87 E5        30.19S WCI  32
HOWELL         CLOUDY    33  28  81 CALM      30.22R

CITY           SKY/WX    TMP DP  RH WIND       PRES   REMARKS
JACKSON        PTCLDY    36  29  75 E6        30.21R WCI  31
LAMBERTVILLE   CLOUDY    38  33  81 CALM      30.23R
LANSING        PTCLDY    33  26  75 E5        30.22S WCI  29
LAPEER         FAIR      29  28  98 CALM      30.25R
MASON          CLOUDY    36  31  81 CALM      30.22R
MONROE         CLOUDY    35  32  90 CALM      30.22R
MT. CLEMENS    CLOUDY    31  30  99 CALM      30.23R
PONTIAC        MOCLDY    31  25  78 CALM      30.22R
PORT HOPE        N/A     31  29  92 CALM      30.25R
PORT HURON     PTCLDY    27  25  93 CALM      30.25R
TRI CITIES     PTCLDY    30  28  92 NE8       30.25R WCI  22
MIDLAND        FAIR      28  26  93 CALM      30.25R
TROY           PTCLDY    36  28  70 CALM      30.26R
SAGINAW HB     CLOUDY    32  28  86 NE3       30.26R
$$
MIZ043>046-050>051-056>058-064>065-071>073-077>080-201200-
SOUTHWEST LOWER MICHIGAN

CITY           SKY/WX    TMP DP  RH WIND       PRES   REMARKS
BATTLE CREEK   CLOUDY    35  29  78 CALM      30.20R
BENTON HARBOR  MOCLDY    41  27  57 SE7       30.17R
BIG RAPIDS     CLOUDY    29  26  91 CALM      30.21R
COLDWATER      PTCLDY    34  31  89 SE6       30.19S WCI  29
FREMONT        FAIR      36  29  75 E7        30.19R WCI  31
HOLLAND        PTCLDY    35  29  78 E6        30.18R WCI  30
GRAND RAPIDS   CLOUDY    35  29  78 E7        30.19S WCI  29
IONIA          FAIR      34  30  85 E5        30.20S WCI  30
KALAMAZOO      MOCLDY    35  28  75 NE3       30.20R
LUDINGTON      PTCLDY    37  31  78 E8        30.17S WCI  31
MARSHALL       CLOUDY    34  30  85 E3        30.19F
MOUNT PLEASANT PTCLDY    29  28  94 CALM      30.24R
MUSKEGON       MOCLDY    36  29  75 E5        30.18S WCI  32
SOUTH HAVEN    MOCLDY    38  28  67 CALM      30.17S
$$
MIZ016>042-201200-
NORTHERN LOWER MICHIGAN

CITY           SKY/WX    TMP DP  RH WIND       PRES   REMARKS
ALPENA         CLEAR     32  30  92 E6        30.29R WCI  26
BEAVER ISLAND  CLOUDY    32  30  93 E8        30.23S WCI  25
BELLAIRE       CLOUDY    28  27  97 CALM      30.24R
CADILLAC       PTCLDY    30  27  87 E5        30.20S WCI  26
CHARLEVOIX     CLOUDY    33  29  85 SE5       30.27R WCI  29
FRANKFORT      PTCLDY    39  31  72 E6        30.18S
GAYLORD        CLOUDY    32  25  75 SE3       30.23R
GRAYLING       CLOUDY    24  23  94 CALM      30.25R
HARBOR SPRINGS PTCLDY    32  29  88 E12       30.25R WCI  23
HOUGHTON LAKE  CLOUDY    25  23  92 E3        30.24R
MANISTEE       CLOUDY    32  29  88 E7        30.18S WCI  26
OSCODA         CLEAR     29  27  93 NE3       30.27R
PELLSTON       MOCLDY    27  23  85 CALM      30.28R
ROGERS CITY    CLEAR     32  30  93 SE6       30.30R WCI  26
TRAVERSE CITY  PTCLDY    29  27  92 NW3       30.22R
$$
MIZ007>008-015-201200-
EASTERN UPPER MICHIGAN

CITY           SKY/WX    TMP DP  RH WIND       PRES   REMARKS
KINROSS        PTCLDY    30  27  88 E13       30.28R WCI  20
MACKINAC ISLAN PTCLDY    34  32  92 E13G21    30.27R WCI  25
NEWBERRY       CLOUDY    30  28  93 SE8       30.24R WCI  22
S. S. MARIE    PTCLDY    32  25  75 E5        30.29R WCI  27
MUNISING         N/A     33  28  81 S8G18     30.21R WCI  26
$$
MIZ004>006-011>014-085-201200-
CENTRAL UPPER MICHIGAN

CITY           SKY/WX    TMP DP  RH WIND       PRES   REMARKS
MANISTIQUE     CLOUDY    32  31  95 E9G16     30.22S WCI  25
ESCANABA       PTCLDY    34  30  85 E7        30.19F WCI  28
MENOMINEE      CLOUDY    36  32  85 E8        30.16F WCI  30
SAWYER-GWINN   CLOUDY    33  28  83 SE7       30.16S WCI  27
$$
MIZ001>003-009>011-084-201200-
WESTERN UPPER MICHIGAN

CITY           SKY/WX    TMP DP  RH WIND       PRES   REMARKS
IRON MOUNTAIN  CLOUDY    32  26  78 S3        30.15R
HOUGHTON       CLOUDY    34  29  82 E13       30.08F WCI  25
COPPER HARBOR    N/A     36  31  82 SW16G36   30.11F WCI  26
IRONWOOD       CLOUDY    44  31  60 SE13G21   30.00R
$$

ABBREVIATIONS USED IN REMARKS
   TC - TEMPERATURE IN CELSIUS
  WCI - WIND CHILL INDEX
   HX - HEAT INDEX
  VSB - VISIBILITY




USA.gov is the U.S. government's official web portal to all federal, state and local government web resources and services.